sat.trackr.live / text

‹ back to catalog

ONEWEB-0382

NORAD 49308 · 2021-090AF

PAYLOAD ACTIVE UNKNOWN

§ Identity

Operator
Country
UK
Launch date
2021-10-14
Launch site
VOSTO
Launch vehicle
Mass (kg)
RCS (m²)

Purposes: comms

External: N2YO · Heavens-Above · Gunter

§ Orbital elements

Epoch: 2026-09-20T05:17:09.957696Z

Period
109.03 min
Inclination
87.9143°
Eccentricity
0.0002251
Mean motion
13.20772908 rev/d
Perigee alt
1,180.1 km
Apogee alt
1,183.5 km
Semi-major
7,559.9 km
B*
8.2456e-5
RAAN
255.4763°
Arg perigee
91.2641°
Mean anomaly
268.8750°
Rev number
24,236

§ Raw data

ONEWEB-03821 49308U 21090AF  26263.22025414  .00000047  00000+0  82456-4 0  99942 49308  87.9143 255.4763 0002251  91.2641 268.8750 13.20772908242365

JSON: /api/v1/satellites/49308 · /tle

For live sub-satellite position, see the globe view (requires WebGL).

§ Visibility from observer

Set your observer location to see the next 7 days of passes ≥ 10°. The values pass through the URL so the page stays shareable.

No JS? Fill the form by hand. The geolocation button needs JavaScript.